TimeEDT,TemperatureF,Dew PointF,Humidity,Sea Level PressureIn,VisibilityMPH,Wind Direction,Wind SpeedMPH,Gust SpeedMPH,PrecipitationIn,Events,Conditions,WindDirDegrees,DateUTC
12:15 AM,48.2,46.4,93,30.03,10.0,NE,8.1,-,N/A,,Mostly Cloudy,50,2012-10-23 04:15:00
12:35 AM,50.0,46.4,87,30.02,10.0,East,8.1,-,N/A,,Overcast,80,2012-10-23 04:35:00
12:55 AM,50.0,46.4,87,30.02,10.0,ENE,9.2,-,N/A,,Overcast,70,2012-10-23 04:55:00
1:15 AM,50.0,46.4,87,30.01,10.0,ENE,9.2,-,N/A,,Overcast,70,2012-10-23 05:15:00
1:35 AM,50.0,46.4,87,30.02,10.0,NE,8.1,-,N/A,,Overcast,40,2012-10-23 05:35:00
1:55 AM,48.2,46.4,93,30.02,10.0,ENE,8.1,-,N/A,,Overcast,60,2012-10-23 05:55:00
2:15 AM,48.2,46.4,93,30.03,10.0,NE,4.6,-,N/A,,Overcast,50,2012-10-23 06:15:00
2:35 AM,48.2,46.4,93,30.04,10.0,East,4.6,-,N/A,,Overcast,80,2012-10-23 06:35:00
2:55 AM,48.2,46.4,93,30.04,10.0,NE,9.2,-,N/A,,Overcast,50,2012-10-23 06:55:00
3:15 AM,48.2,46.4,93,30.04,10.0,NE,9.2,-,N/A,,Overcast,50,2012-10-23 07:15:00
3:35 AM,48.2,44.6,87,30.04,10.0,NE,8.1,-,N/A,,Overcast,50,2012-10-23 07:35:00
3:55 AM,48.2,44.6,87,30.03,10.0,NE,9.2,-,N/A,,Overcast,50,2012-10-23 07:55:00
4:15 AM,48.2,44.6,87,30.03,10.0,ENE,9.2,-,N/A,,Overcast,60,2012-10-23 08:15:00
4:35 AM,48.2,44.6,87,30.04,10.0,ENE,6.9,-,N/A,,Overcast,60,2012-10-23 08:35:00
4:55 AM,48.2,44.6,87,30.04,10.0,ENE,10.4,-,N/A,,Overcast,60,2012-10-23 08:55:00
5:15 AM,48.2,44.6,87,30.04,10.0,ENE,8.1,-,N/A,,Overcast,60,2012-10-23 09:15:00
5:35 AM,48.2,44.6,87,30.04,10.0,ENE,8.1,-,N/A,,Overcast,70,2012-10-23 09:35:00
6:15 AM,50.0,44.6,82,30.04,10.0,ENE,8.1,-,N/A,,Overcast,70,2012-10-23 10:15:00
6:35 AM,50.0,44.6,82,30.04,10.0,East,9.2,-,N/A,,Overcast,80,2012-10-23 10:35:00
6:55 AM,50.0,44.6,82,30.05,10.0,ENE,11.5,-,N/A,,Overcast,70,2012-10-23 10:55:00
7:35 AM,50.0,44.6,82,30.05,10.0,ENE,11.5,-,N/A,,Overcast,70,2012-10-23 11:35:00
7:55 AM,50.0,44.6,82,30.06,10.0,ENE,12.7,-,N/A,,Overcast,70,2012-10-23 11:55:00
8:15 AM,48.2,44.6,87,30.06,10.0,East,12.7,-,N/A,,Overcast,80,2012-10-23 12:15:00
8:35 AM,50.0,44.6,82,30.06,10.0,ENE,15.0,-,N/A,,Overcast,70,2012-10-23 12:35:00
9:35 AM,50.0,44.6,82,30.05,8.0,East,17.3,21.9,N/A,,Overcast,80,2012-10-23 13:35:00
9:55 AM,50.0,44.6,82,30.06,9.0,East,15.0,21.9,N/A,,Overcast,80,2012-10-23 13:55:00
10:15 AM,51.8,44.6,76,30.05,8.0,East,15.0,20.7,N/A,,Overcast,80,2012-10-23 14:15:00
10:35 AM,51.8,44.6,76,30.05,10.0,East,15.0,23.0,N/A,,Overcast,80,2012-10-23 14:35:00
10:55 AM,51.8,44.6,76,30.05,10.0,East,15.0,19.6,N/A,,Overcast,90,2012-10-23 14:55:00
11:15 AM,53.6,42.8,67,30.05,10.0,East,16.1,25.3,N/A,,Overcast,90,2012-10-23 15:15:00
11:35 AM,53.6,42.8,67,30.05,10.0,East,18.4,24.2,N/A,,Overcast,100,2012-10-23 15:35:00
11:55 AM,53.6,42.8,67,30.05,10.0,East,20.7,25.3,N/A,,Overcast,100,2012-10-23 15:55:00
12:15 PM,53.6,44.6,72,30.06,10.0,ESE,18.4,26.5,N/A,,Overcast,110,2012-10-23 16:15:00
12:35 PM,55.4,44.6,67,30.07,10.0,East,24.2,29.9,N/A,,Overcast,100,2012-10-23 16:35:00
12:55 PM,53.6,42.8,67,30.05,10.0,East,27.6,35.7,N/A,,Overcast,100,2012-10-23 16:55:00
3:55 PM,53.6,44.6,72,30.03,-9999.0,East,17.3,26.5,N/A,,Unknown,100,2012-10-23 19:55:00
4:15 PM,53.6,44.6,72,30.03,10.0,East,20.7,28.8,N/A,,Overcast,100,2012-10-23 20:15:00
4:35 PM,53.6,42.8,67,30.03,10.0,ESE,20.7,26.5,N/A,,Overcast,110,2012-10-23 20:35:00
4:55 PM,53.6,42.8,67,30.03,10.0,ESE,21.9,26.5,N/A,,Overcast,120,2012-10-23 20:55:00
5:15 PM,53.6,42.8,67,30.03,10.0,ESE,16.1,27.6,N/A,,Overcast,120,2012-10-23 21:15:00
5:35 PM,53.6,42.8,67,30.04,10.0,ESE,19.6,24.2,N/A,,Overcast,110,2012-10-23 21:35:00
5:55 PM,53.6,42.8,67,30.03,10.0,ESE,20.7,27.6,N/A,,Overcast,120,2012-10-23 21:55:00
6:15 PM,53.6,42.8,67,30.03,10.0,ESE,19.6,24.2,N/A,,Overcast,120,2012-10-23 22:15:00
6:35 PM,53.6,42.8,67,30.03,10.0,ESE,20.7,-,N/A,,Overcast,110,2012-10-23 22:35:00
6:55 PM,53.6,44.6,72,30.03,10.0,East,19.6,25.3,N/A,,Overcast,100,2012-10-23 22:55:00
7:15 PM,51.8,44.6,76,30.03,10.0,ESE,21.9,27.6,N/A,,Overcast,110,2012-10-23 23:15:00
7:35 PM,51.8,44.6,76,30.03,10.0,East,19.6,29.9,N/A,,Overcast,100,2012-10-23 23:35:00
7:55 PM,51.8,44.6,76,30.04,10.0,East,20.7,29.9,N/A,,Overcast,100,2012-10-23 23:55:00
8:15 PM,51.8,44.6,76,30.05,10.0,ESE,17.3,27.6,N/A,,Overcast,110,2012-10-24 00:15:00
8:35 PM,51.8,44.6,76,30.05,10.0,ESE,18.4,25.3,N/A,,Overcast,110,2012-10-24 00:35:00
8:55 PM,51.8,44.6,76,30.04,10.0,ESE,17.3,25.3,N/A,,Overcast,110,2012-10-24 00:55:00
9:15 PM,51.8,44.6,76,30.04,10.0,ESE,20.7,27.6,N/A,,Overcast,110,2012-10-24 01:15:00
9:35 PM,51.8,44.6,76,30.05,10.0,ESE,18.4,27.6,N/A,,Overcast,110,2012-10-24 01:35:00
9:55 PM,51.8,44.6,76,30.06,10.0,ESE,18.4,26.5,N/A,,Overcast,110,2012-10-24 01:55:00
10:15 PM,51.8,44.6,76,30.06,10.0,ESE,18.4,26.5,N/A,,Overcast,110,2012-10-24 02:15:00
10:35 PM,51.8,44.6,76,30.06,10.0,East,16.1,25.3,N/A,,Overcast,100,2012-10-24 02:35:00
10:55 PM,50.0,44.6,82,30.06,10.0,East,13.8,24.2,N/A,,Overcast,100,2012-10-24 02:55:00
11:15 PM,50.0,44.6,82,30.05,10.0,East,19.6,23.0,N/A,,Overcast,100,2012-10-24 03:15:00
11:35 PM,50.0,44.6,82,30.05,10.0,East,18.4,23.0,N/A,,Overcast,90,2012-10-24 03:35:00
11:55 PM,48.2,44.6,87,30.05,10.0,ESE,17.3,23.0,N/A,,Overcast,110,2012-10-24 03:55:00